Regional Weather Roundup
Issued by NWS Green Bay, WI

Home | Current Version | Previous Version | Text Only | Print | Product List | Glossary On
Versions: 1 2 3 4 5 6 7 8 9 10 11 12 13 14 15 16 17 18 19 20 21 22 23 24 25 26 27 28 29 30 31 32 33 34 35 36 37 38 39 40 41 42 43 44 45 46 47 48 49 50
000
ASUS43 KGRB 251700
RWRGRB

NORTH-CENTRAL AND NORTHEAST WISCONSIN REGIONAL WEATHER ROUNDUP
NATIONAL WEATHER SERVICE GREEN BAY WI
1100 AM CST SAT FEB 25 2017

WIZ005-009-010>012-018-019-251800-
NORTH CENTRAL WISCONSIN

CITY           SKY/WX    TMP DP  RH WIND       PRES   REMARKS
IRONWOOD       LGT SNOW  15  11  83 W14       29.74R VSB 1   WCI   0
MANITOWISH WTR NOT AVBL
ARBOR VITAE    NOT AVBL
EAGLE RIVER    NOT AVBL
LAND O LAKES   NOT AVBL
RHINELANDER    LGT SNOW  17   9  70 NW14G23   29.68R WCI   3
PHILLIPS       NOT AVBL
ANTIGO         NOT AVBL
TOMAHAWK       NOT AVBL
MERRILL        NOT AVBL
$$

WIZ013-073-251800-
NORTHEAST WISCONSIN

CITY           SKY/WX    TMP DP  RH WIND       PRES   REMARKS
IRON MOUNTAIN  LGT SNOW  20  10  65 NW22G30   29.61R WCI   3
MARINETTE      FLURRIES  24  16  71 VRB6G16   29.67R
$$

WIZ017-030-035>037-045-251800-
CENTRAL WISCONSIN

CITY           SKY/WX    TMP DP  RH WIND       PRES   REMARKS
MEDFORD        NOT AVBL
WAUSAU         FLURRIES  16   8  71 NW16G22   29.75R WCI   1
MOSINEE        LGT SNOW  16  10  79 W16G24    29.77R WCI   0
MARSHFIELD     FLURRIES  14   5  67 NW16      29.79R WCI  -2
WISC RAPIDS    CLOUDY    17   7  64 NW18      29.82R WCI   1
STEVENS POINT  NOT AVBL
WAUPACA        NOT AVBL
SHAWANO        CLOUDY    22  12  65 CALM      29.73R
CLINTONVILLE   NOT AVBL
WAUTOMA        CLOUDY    19  10  68 NW16G25   29.81R WCI   4
$$

WIZ038-039-048-051-251800-
FOX VALLEY

CITY           SKY/WX    TMP DP  RH WIND       PRES   REMARKS
NWS GREEN BAY  MIX PCPN  22  14  71 W22G28    29.72R WCI   6
APPLETON       CLOUDY    19   9  63 NW13G21   29.73R WCI   7
OSHKOSH        CLOUDY    19  10  68 W14G24    29.77R WCI   6
FOND DU LAC    FLURRIES  19   8  62 W18G24    29.78R WCI   4
$$

WIZ022-050-052-251800-
EAST CENTRAL WISCONSIN

CITY           SKY/WX    TMP DP  RH WIND       PRES   REMARKS
EPHRAIM        NOT AVBL
WASHINGTON ISL NOT AVBL
STURGEON BAY   LGT SNOW  23  17  78 W13       29.67R
MANITOWOC      FLURRIES  21  14  73 W17G25    29.73R WCI   7
SHEBOYGAN      FLURRIES  20  12  71 W18G25    29.75R WCI   5
$$

LMZ563-521-522-541>543-251800-
LAKESHORE

STATION/POSITION TIME  TEMP    WIND        PRES    VSBY  WAVE
                       AIR SEA DIR/SP/G                  HT/PER
                 (UTC) (F)     (DEG/KT/KT) (MB)    (MI)  (FT/S)
SHEBOYGAN LKSHOR 1600   19     290/ 13/ 14 1007.6R
KEWAUNEE LKSHORE 1630   21     290/ 17/ 21 1004.8R
NORTHPORT PIER   1620          300/  2       N/A
SISTER BAY LKSHO 1605   22        CALM       N/A
CHAMBERS ISLAND  1640   23     270/  1/  2 1003.7R
MENOMINEE LKSHOR 1630   21     260/ 10/ 16 1003.7R
$$




USA.gov is the U.S. government's official web portal to all federal, state and local government web resources and services.